Погода в Малени

Австралия     26°45′31″S   152°50′58″E
темп.,
°C
ветер,
м/с
пор.,
м/с
влажн.,
%
обл.,
%
осадки,
мм/ч
давл.,
гПа
погр.,
м
14 мая, пт
пт1401:00+12зюз313640 0.0 1013430
04:00+11зюз29710 0.0 1013273
07:00+10зюз28780 0.0 1015227
10:00+18юз37450 0.0 1015623
13:00+21юз24340 0.0 10121014
16:00+20ююз24470 0.0 1012303
19:00+13з11720 0.0 101612
22:00+11з11740 0.0 101715
15 мая, сб
сб1501:00+10з11760 0.0 101622
04:00+9з21790 0.0 101630
07:00+10зюз22780 0.0 101750
10:00+18зюз124316 0.0 1016658
13:00+20зюз34325 0.0 10141157
16:00+18зюз26450 0.0 1014802
19:00+13зюз311585 0.0 1016410
22:00+11зюз286242 0.0 1018257
16 мая, вс
вс1601:00+8зюз22719 0.0 101842
04:00+8юз227312 0.0 101941
07:00+8юз13750 0.0 102166
10:00+15ююв365611 0.0 1021850
13:00+18юв345587 0.0 10201438
16:00+15юв257480 0.1 1020470
19:00+11ю119710 0.1 102216
22:00+10юз11965 0.1 102314
17 мая, пн
пн1701:00+9юз119346 0.0 102315
04:00+9зюз119458 0.0 102317
07:00+9зюз11910 0.0 102433
10:00+18юз11454 0.0 1023867
13:00+21ююз22340 0.0 10211455
16:00+19ююз12490 0.0 102170
19:00+11ююв11790 0.0 102411
22:00+10ю11840 0.0 102621
18 мая, вт
вт1801:00+9ююз119214 0.0 102630
04:00+9юз148932 0.0 1026142
07:00+10ююз1283100 0.0 102785
10:00+17ююв366319 0.0 1027955
13:00+17юв356888 0.1 10251132
16:00+13ю1787100 0.3 1025516
19:00+13ю299084 0.1 1026424
22:00+11ююз11947 0.1 102744